MET783 - Boston to Houston

Airbus A319-131
309MT
3 hrs 15 mins
1388 nm
Scheduled - Daily

Bid/PiRep Status

Bid was submitted on Jan 07 2017.

PiRep # 74655: Approved by Sean Doyle on January 9th, 2017 3:52 UTC

Departure

Departing from
Boston (BOS)
Departure gate
Scheduled Departure
GMT 1445
Local 1045

Arrival

Arriving at
Houston (IAH)
Arrival gate
Scheduled Arrival
GMT 1800
Local 1300
METAR KIAH 210953Z 00000KT 10SM FEW250 26/23 A3001 RMK AO2 SLP159 T02560233
TAF KIAH 210520Z 2106/2212 19004KT P6SM SCT250 FM211000 VRB03KT P6SM FEW025 FM211700 VRB04KT P6SM SCT050 SCT250 FM212000 14007KT P6SM VCSH SCT060 SCT250 FM220200 16005KT P6SM SCT250

Route Map

Planning Resources

KBWI BINKS J75 GVE J42 SWAPP Q34 MEM J29 DARTR KIAH
KBWI BINKS J75 GVE J42 SWAPP Q34 MEM J29 VELCO DARTR KIAH
FLUKY PAUKI MOL J22 VUZ JAN AEX DAS8
KBWI PEPBI GRAAF VETTE NALIE KIAH
BINKS J75 GVE J42 MOL J22 VUZ J31 MEI J22 MCB J50 CIDOR J180 DAS
Route:
OFP Layout:
Units:
Detailed Navlog:
ETOPS Planning:
Plan Stepclimbs:
Runway Analysis:
Include NOTAMS:
FIR NOTAMS:
Flight Maps:

Return Flights

MET309
Airbus A321-232
1045 GMT
MET784
Airbus A319-131
1845 GMT

Popularity

Hub Current Bids PiReps this month Total PiReps
KMCI 0 0 2
KLAX 0 0 2
KBOS 0 0 1